Location: Heisede
(52.2582°N, 9.8523°E)
Time: 00:48:38
(UTC+00:00)

ATLAS 2AS CENTAUR R/B - Pass Details

Date: 13 January 2026
Orbit: 1050 x 1161 km, 63.7° (Epoch: 18 February)

Event Time Altitude Azimuth Distance (km) Brightness Sun altitude
Exits shadow 03:19:11 35° 19° (NNE) 1,638 3.8 -36.6°
Drops below altitude 10° 03:25:05 10° 80° (E) 2,868 5.7 -35.7°
Sets 03:27:59 0° 89° (E) 3,822 6.6 -35.2°
